Temp
60 60 61 61 61 61 61 61 61 61 61 61 61 61 61 61 61 52 47 55 58 64 62 53 55 53 51 46 46 43 36 32 34 35 35 38 38 40 41 38 41 43 43 48 51
60 60 60 61 61 61 61 61 61 61 61 61 61 61 61 61 51 48 59 64 64 64 53 50 49 50 44 43 42 39 33 35 35 35 34 36 36 36 37 37 39 40 45 48 49
60 60 60 60 60 61 61 61 60 61 61 61 61 61 61 57 48 48 63 64 63 60 52 50 50 48 42 42 40 36 35 38 37 38 39 38 35 38 35 35 39 40 45 46 45
59 59 59 60 60 61 61 61 60 61 61 61 61 61 60 52 40 51 62 62 62 56 53 50 48 42 38 37 41 36 40 40 41 41 39 36 38 36 38 40 43 45 43 44 45
58 58 59 59 60 60 61 61 60 60 60 61 61 61 54 47 44 56 60 57 55 53 47 46 43 40 37 38 39 37 37 40 40 41 39 40 38 37 38 42 44 44 45 44 44
58 58 58 59 59 60 60 61 60 60 60 61 61 61 49 41 54 55 53 54 51 50 46 45 42 43 41 38 37 37 37 37 39 40 40 37 35 36 40 40 41 44 45 45 44
58 58 58 58 59 60 60 60 60 60 60 61 62 56 48 44 53 53 53 51 51 49 45 46 45 45 41 37 40 38 35 37 38 39 38 38 35 33 38 41 40 42 44 44 43
58 58 58 58 58 59 60 60 60 60 60 61 61 52 42 54 51 53 53 51 53 52 49 49 49 45 41 41 38 33 32 29 35 38 38 38 32 37 39 36 39 39 41 41 42
58 58 58 58 58 59 59 59 59 60 61 60 51 47 40 57 50 51 51 48 49 50 50 54 47 38 39 33 28 27 20 28 32 37 34 33 31 37 37 38 37 37 36 39 39
58 58 58 58 58 58 59 59 59 58 56 57 54 44 47 43 48 50 50 50 46 46 45 43 37 29 27 24 19 21 21 28 26 32 32 29 30 38 38 36 35 36 34 36 37
59 58 58 58 58 59 53 49 46 46 45 39 40 40 44 47 48 48 49 47 45 41 32 35 29 24 27 30 30 28 26 24 28 32 30 28 29 35 39 34 31 31 32 34 36
59 58 58 58 58 57 48 42 40 42 37 43 43 43 45 44 41 45 50 40 35 27 33 28 23 31 35 34 32 28 19 19 29 31 29 27 27 34 33 31 32 32 31 33 34
58 58 57 57 57 49 43 41 46 43 34 40 41 40 41 44 38 41 44 38 30 25 23 26 31 36 34 31 28 26 20 19 25 28 26 22 22 27 32 33 32 32 31 31 34
58 57 57 57 51 45 41 46 45 43 26 35 38 40 42 41 37 45 44 39 33 26 27 27 34 34 31 29 30 19 30 29 25 16 11 24 12 25 26 29 32 32 30 31 31
57 56 56 56 46 42 43 44 43 41 20 36 37 45 43 38 38 39 43 39 32 28 27 28 29 30 26 32 32 27 30 27 22 8 13 13 8 22 25 28 30 31 31 31 31
56 55 56 50 44 42 43 42 41 29 19 29 36 35 33 37 37 39 38 41 37 32 30 26 32 31 31 33 32 31 24 22 16 5 3 6 8 18 24 26 27 28 30 31 31
54 52 49 47 42 42 41 39 28 21 31 28 29 34 30 30 34 34 33 31 27 21 17 26 27 31 33 28 30 26 12 6 7 3 8 0 8 21 26 27 28 30 31 31 30
53 50 46 44 42 42 40 31 18 20 20 33 33 32 28 30 29 29 30 24 28 25 11 12 17 21 32 28 21 20 14 8 2 4 6 3 8 22 27 29 28 29 28 29 28
53 44 41 42 43 42 37 22 25 25 33 32 32 23 22 29 26 23 24 23 28 25 18 12 16 29 31 30 27 19 12 20 2 -5 -1 5 13 25 28 20 24 26 27 27 28
47 44 39 42 42 42 32 30 26 33 35 33 26 27 17 19 25 19 24 29 29 29 25 21 14 20 26 29 26 19 24 11 6 2 -2 3 -3 20 19 16 20 23 20 24 27
46 40 40 41 41 36 28 23 29 37 36 32 29 21 27 21 23 19 24 30 29 27 29 19 14 17 26 18 17 20 11 10 10 11 3 -2 11 17 18 16 17 19 22 20 22
44 33 39 40 34 32 32 33 35 33 34 33 31 32 27 27 23 18 25 28 31 27 24 28 20 11 18 25 27 21 14 18 11 5 4 9 14 22 16 8 3 17 20 21 20
37 36 40 39 29 30 33 33 30 30 30 30 28 32 29 20 21 27 27 34 32 31 26 28 14 7 18 21 24 17 21 21 15 17 7 6 18 16 5 8 14 15 19 21 18
36 32 34 34 34 33 32 32 32 33 32 32 32 32 30 24 27 23 28 32 33 32 37 34 24 17 17 18 12 15 19 22 19 9 16 18 23 31 33 31 30 22 16 15 16
38 34 32 29 32 32 34 33 27 32 30 30 25 29 26 24 21 17 27 28 30 34 32 30 15 19 19 19 14 19 17 22 17 19 15 25 19 28 31 32 32 17 16 19 17
35 32 34 30 32 32 34 32 33 34 31 28 23 29 29 21 29 26 27 28 27 27 27 27 11 11 7 21 22 16 21 22 21 21 21 23 21 31 33 30 22 21 15 17 16
35 40 38 35 32 30 30 33 33 32 33 35 30 30 26 30 33 34 33 32 32 27 25 22 14 9 7 12 11 12 18 21 15 14 17 11 24 29 25 20 14 18 10 17 17
MSLP
1021.19 1020.94 1020.68 1020.36 1020.07 1019.84 1019.60 1019.27 1019.01 1018.72 1018.55 1018.33 1018.17 1017.88 1017.63 1017.46 1017.31 1017.32 1017.85 1017.95 1017.53 1016.81 1016.46 1016.33 1016.15 1016.15 1016.28 1017.30 1017.71 1017.87 1018.87 1019.76 1019.55 1019.73 1019.53 1019.75 1019.76 1019.77 1019.83 1019.83 1019.48 1019.23 1019.25 1019.44 1019.61
1021.35 1021.15 1020.83 1020.41 1020.18 1019.91 1019.63 1019.35 1019.09 1018.80 1018.58 1018.38 1018.18 1017.84 1017.59 1017.47 1017.63 1017.78 1018.13 1017.57 1017.31 1016.78 1016.78 1016.78 1016.79 1016.68 1017.51 1018.09 1018.45 1018.68 1019.38 1019.49 1019.58 1019.61 1019.84 1020.08 1020.24 1020.23 1020.22 1020.10 1019.72 1019.51 1019.55 1019.57 1019.70
1021.52 1021.30 1021.01 1020.63 1020.21 1019.90 1019.61 1019.36 1019.12 1018.89 1018.67 1018.41 1018.12 1017.87 1017.64 1017.55 1017.72 1018.20 1017.91 1017.49 1017.04 1016.81 1017.03 1016.91 1016.91 1017.09 1018.08 1018.64 1019.23 1019.47 1019.61 1019.69 1019.91 1019.83 1020.01 1020.29 1020.44 1020.43 1020.55 1020.35 1019.96 1019.69 1019.69 1019.81 1019.89
1021.72 1021.42 1021.10 1020.74 1020.31 1019.88 1019.58 1019.30 1019.12 1018.91 1018.66 1018.40 1018.14 1017.79 1017.53 1017.55 1018.64 1018.47 1017.98 1017.55 1017.07 1016.82 1016.87 1016.96 1017.11 1017.84 1018.77 1019.26 1019.47 1019.73 1019.98 1019.90 1020.12 1020.13 1020.29 1020.50 1020.45 1020.58 1020.60 1019.68 1019.43 1019.53 1019.51 1019.71 1019.84
1021.76 1021.56 1021.21 1020.75 1020.36 1019.90 1019.55 1019.28 1019.03 1018.84 1018.63 1018.35 1018.08 1017.77 1017.64 1018.08 1018.88 1018.54 1018.24 1017.78 1017.23 1017.20 1017.50 1017.52 1017.86 1018.47 1019.22 1019.59 1019.71 1019.80 1020.12 1020.18 1020.24 1020.31 1020.39 1020.47 1020.47 1020.54 1019.94 1019.41 1019.60 1019.55 1019.60 1019.72 1019.86
1021.91 1021.61 1021.25 1020.83 1020.39 1019.98 1019.52 1019.14 1018.89 1018.79 1018.61 1018.35 1018.10 1017.81 1017.90 1018.60 1018.92 1018.82 1018.54 1018.05 1018.02 1018.02 1018.19 1017.99 1018.37 1018.48 1019.23 1019.90 1020.14 1020.40 1020.39 1020.34 1020.32 1020.26 1020.26 1020.46 1020.44 1020.48 1019.22 1019.12 1019.46 1019.52 1019.58 1019.66 1019.73
1021.95 1021.71 1021.32 1020.90 1020.43 1019.92 1019.40 1018.96 1018.73 1018.72 1018.63 1018.35 1018.11 1018.07 1018.48 1019.33 1019.01 1018.81 1018.68 1018.52 1018.53 1018.55 1018.62 1018.55 1018.52 1018.69 1019.44 1020.31 1020.66 1020.62 1020.71 1020.47 1020.49 1020.44 1020.49 1020.48 1020.22 1020.04 1019.28 1019.26 1019.49 1019.63 1019.60 1019.62 1019.61
1021.99 1021.75 1021.40 1020.94 1020.43 1019.81 1019.32 1018.78 1018.55 1018.60 1018.49 1018.34 1018.18 1018.25 1019.00 1019.06 1018.96 1018.89 1018.80 1018.63 1018.70 1018.64 1018.72 1018.70 1018.70 1019.24 1020.01 1020.60 1021.10 1021.58 1021.47 1021.40 1020.96 1020.83 1020.91 1020.95 1020.26 1019.29 1019.16 1019.55 1019.68 1019.54 1019.62 1019.60 1019.57
1021.96 1021.76 1021.42 1020.94 1020.45 1019.74 1019.20 1018.70 1018.55 1018.45 1018.31 1018.29 1018.45 1018.57 1019.26 1019.01 1019.17 1019.23 1019.16 1019.27 1019.06 1018.87 1018.89 1018.82 1019.18 1020.38 1020.83 1021.48 1022.38 1022.96 1023.05 1022.61 1021.83 1021.61 1021.55 1021.62 1020.58 1019.16 1019.30 1019.57 1019.62 1019.46 1019.52 1019.57 1019.58
1021.84 1021.69 1021.41 1020.96 1020.45 1019.75 1018.96 1018.68 1018.48 1018.36 1018.48 1018.44 1018.82 1019.40 1019.50 1019.99 1019.84 1019.62 1019.28 1019.30 1019.42 1019.35 1019.39 1019.75 1020.52 1021.28 1022.19 1022.54 1023.40 1023.78 1023.95 1023.62 1023.34 1022.75 1022.46 1022.15 1020.76 1019.16 1018.96 1019.48 1019.47 1019.31 1019.33 1019.49 1019.50
1021.73 1021.55 1021.38 1021.07 1020.58 1020.00 1019.25 1018.94 1019.56 1019.66 1019.91 1020.30 1020.62 1020.65 1020.47 1020.35 1020.09 1019.89 1019.75 1019.74 1019.85 1020.28 1021.07 1021.43 1022.06 1022.32 1022.76 1022.92 1023.32 1023.87 1024.40 1024.61 1023.84 1023.55 1023.35 1022.42 1021.30 1019.19 1018.86 1019.11 1019.15 1019.15 1019.07 1019.14 1019.37
1021.67 1021.45 1021.44 1021.16 1020.77 1020.37 1020.42 1021.53 1022.67 1023.15 1021.93 1020.99 1020.79 1020.77 1020.72 1020.83 1020.55 1020.23 1019.95 1020.53 1020.99 1022.00 1022.23 1022.48 1022.68 1022.56 1022.65 1023.03 1023.64 1024.43 1025.11 1025.28 1024.59 1024.40 1024.49 1023.28 1021.33 1019.31 1018.90 1018.65 1018.44 1018.46 1018.72 1018.95 1019.34
1021.64 1021.49 1021.39 1021.23 1020.95 1021.23 1022.29 1022.99 1023.05 1023.11 1022.79 1021.51 1021.08 1020.97 1021.01 1020.96 1021.01 1020.91 1020.78 1021.40 1022.24 1023.08 1023.47 1023.35 1023.07 1022.68 1022.80 1023.35 1024.03 1024.77 1025.62 1025.97 1026.22 1025.62 1025.15 1024.76 1021.93 1019.93 1018.86 1018.38 1018.08 1018.27 1018.66 1019.17 1019.47
1021.59 1021.64 1021.60 1021.19 1021.50 1022.27 1022.96 1023.20 1023.13 1023.06 1023.13 1021.98 1021.26 1021.13 1021.10 1021.02 1021.23 1021.12 1021.21 1021.77 1022.71 1023.64 1023.99 1023.87 1023.31 1023.10 1023.30 1023.77 1024.37 1025.38 1025.57 1026.33 1027.07 1027.70 1027.85 1026.73 1024.73 1021.26 1019.57 1018.74 1018.15 1018.20 1018.78 1019.14 1019.57
1021.84 1021.73 1021.83 1021.30 1022.29 1023.03 1023.79 1023.44 1023.18 1023.26 1023.09 1022.40 1021.50 1021.16 1021.13 1021.43 1021.68 1021.50 1021.48 1021.55 1022.62 1023.82 1024.37 1024.01 1023.71 1023.68 1023.91 1023.99 1024.53 1025.57 1026.14 1027.16 1028.41 1029.55 1029.71 1028.70 1028.13 1021.46 1020.16 1018.84 1018.24 1018.14 1018.63 1018.87 1019.28
1022.04 1021.98 1021.87 1022.08 1022.89 1023.72 1023.58 1023.48 1023.56 1023.72 1023.24 1022.35 1021.92 1021.69 1021.86 1021.91 1022.03 1021.86 1021.78 1021.98 1022.74 1023.60 1024.26 1024.39 1024.12 1024.13 1024.13 1024.48 1024.98 1025.91 1027.03 1028.28 1029.71 1030.87 1031.29 1029.98 1028.82 1022.97 1020.50 1018.97 1018.42 1018.35 1018.61 1018.81 1019.12
1022.32 1022.32 1022.37 1022.88 1023.67 1023.53 1023.48 1023.69 1024.48 1024.06 1023.41 1023.19 1022.63 1022.49 1022.90 1023.01 1022.85 1022.84 1022.71 1022.82 1023.53 1024.40 1025.21 1025.10 1024.89 1024.63 1024.56 1025.10 1025.75 1026.58 1028.49 1030.23 1031.47 1032.32 1031.70 1030.50 1029.22 1022.85 1019.97 1019.14 1018.85 1018.88 1018.72 1018.87 1019.08
1022.58 1022.76 1023.55 1023.85 1023.91 1023.65 1023.56 1024.13 1025.27 1024.20 1023.73 1023.29 1023.17 1023.19 1023.70 1024.00 1023.98 1023.84 1023.71 1023.81 1024.15 1024.89 1026.71 1027.01 1025.89 1025.53 1025.34 1025.76 1026.64 1027.88 1029.14 1031.21 1032.70 1033.63 1032.53 1030.74 1027.99 1021.71 1019.72 1019.03 1019.04 1019.16 1019.23 1019.16 1019.19
1022.70 1023.39 1023.80 1023.94 1023.76 1023.67 1023.98 1024.89 1024.16 1023.97 1023.44 1023.42 1023.49 1024.02 1024.46 1024.66 1024.99 1024.83 1024.54 1024.46 1024.50 1025.17 1026.38 1027.25 1026.75 1026.27 1026.19 1026.29 1027.25 1028.76 1029.84 1030.63 1032.53 1034.54 1033.59 1030.02 1026.55 1022.20 1019.91 1019.60 1019.53 1019.40 1019.67 1019.50 1019.22
1023.06 1023.55 1024.16 1024.03 1023.77 1023.71 1024.63 1024.70 1024.22 1023.69 1023.39 1023.39 1023.93 1024.33 1025.22 1025.29 1025.60 1025.42 1024.80 1024.48 1024.76 1025.30 1025.98 1027.19 1027.60 1027.15 1026.93 1026.96 1027.86 1028.49 1029.73 1030.92 1032.27 1033.61 1033.10 1029.63 1027.76 1023.67 1021.25 1020.67 1020.08 1020.10 1020.02 1019.66 1019.16
1023.44 1024.00 1024.43 1024.19 1023.98 1024.19 1025.07 1024.98 1024.38 1023.70 1023.52 1023.71 1023.96 1024.48 1025.01 1025.52 1025.78 1026.01 1025.35 1024.63 1024.76 1025.49 1025.98 1027.15 1027.88 1027.83 1027.34 1027.24 1027.55 1029.08 1029.77 1030.90 1031.74 1032.17 1032.42 1030.91 1024.78 1021.76 1021.35 1021.08 1021.14 1020.83 1020.40 1019.99 1019.65
1023.83 1024.60 1024.75 1024.35 1024.86 1024.69 1024.73 1024.60 1024.55 1023.80 1023.70 1023.79 1024.03 1024.30 1024.68 1025.20 1025.70 1025.86 1025.37 1024.68 1024.54 1025.02 1025.97 1026.58 1027.44 1027.99 1026.95 1026.82 1026.98 1027.71 1028.42 1029.21 1030.30 1031.13 1031.12 1030.08 1022.54 1020.12 1020.67 1021.39 1021.49 1020.85 1020.36 1019.82 1019.74
1024.35 1024.77 1024.87 1024.85 1024.99 1024.83 1024.76 1024.66 1024.52 1024.11 1024.03 1024.10 1024.13 1024.27 1024.71 1025.31 1025.71 1025.23 1024.82 1024.30 1024.46 1024.86 1025.38 1026.17 1027.40 1027.83 1027.40 1027.59 1027.48 1027.68 1027.82 1028.05 1028.47 1028.65 1028.59 1027.85 1021.67 1019.34 1020.36 1020.49 1020.27 1020.62 1020.02 1019.70 1019.76
1024.79 1025.03 1025.19 1025.18 1025.03 1024.82 1024.74 1024.38 1024.22 1024.16 1024.25 1024.27 1024.27 1024.37 1024.89 1025.38 1025.26 1025.08 1024.69 1024.32 1024.44 1024.69 1024.98 1025.74 1026.89 1027.63 1027.51 1027.39 1027.47 1027.48 1027.03 1027.02 1027.18 1027.67 1026.13 1023.15 1020.41 1019.08 1018.48 1019.45 1019.25 1019.63 1019.49 1019.47 1019.71
1024.65 1024.71 1024.53 1024.92 1024.74 1024.45 1024.37 1023.91 1023.89 1024.06 1024.46 1024.62 1024.57 1024.56 1024.74 1025.36 1025.22 1024.86 1024.39 1024.41 1024.59 1024.68 1025.28 1026.12 1027.37 1027.71 1027.31 1027.11 1027.26 1026.45 1026.22 1025.65 1025.85 1025.00 1024.97 1019.37 1020.91 1017.69 1018.03 1018.27 1018.39 1018.76 1018.83 1019.18 1019.41
1024.86 1024.86 1024.84 1024.44 1024.16 1024.05 1023.81 1023.06 1023.14 1023.37 1023.81 1024.16 1024.59 1024.00 1024.44 1024.42 1023.76 1023.72 1023.93 1024.28 1024.26 1025.10 1025.68 1026.44 1027.51 1028.26 1027.96 1026.83 1026.59 1025.70 1024.49 1023.57 1023.90 1023.90 1022.95 1021.48 1020.03 1017.14 1017.27 1017.86 1018.10 1018.38 1019.15 1019.31 1019.31
1024.50 1024.32 1024.26 1023.58 1023.71 1023.56 1022.75 1022.24 1022.12 1022.85 1022.51 1022.30 1023.01 1023.70 1023.81 1023.20 1023.13 1023.15 1023.27 1023.71 1024.07 1024.71 1025.59 1026.56 1027.52 1028.73 1028.37 1027.66 1026.71 1024.34 1020.95 1021.33 1021.90 1021.77 1021.25 1020.81 1017.81 1016.82 1017.56 1018.10 1018.20 1017.99 1018.47 1018.55 1018.66
Wind_Speed
12 12 12 13 14 14 14 14 12 10 9 9 9 8 7 8 5 6 7 7 10 16 14 6 4 5 5 5 5 2 6 2 5 5 2 2 2 1 2 3 4 1 3 3 5
13 14 14 14 14 14 14 13 12 11 10 9 9 9 8 7 2 8 7 15 15 14 6 6 4 4 5 4 4 6 4 5 2 3 2 1 0 2 3 3 3 1 1 4 3
12 13 14 15 14 14 14 13 11 10 9 9 10 10 10 3 1 4 14 16 15 10 3 1 0 3 6 4 5 1 3 4 3 3 2 1 2 3 2 5 8 5 6 4 4
13 13 14 15 15 15 14 13 11 10 10 10 11 12 7 2 1 3 16 17 13 7 3 3 5 5 4 4 2 5 2 2 3 2 2 2 0 3 6 7 2 8 2 2 5
12 14 15 15 16 15 14 12 10 9 10 10 11 12 2 5 2 5 15 12 6 5 6 4 5 4 5 3 2 3 1 1 1 3 4 1 5 5 9 11 8 7 5 7 7
11 13 14 16 16 16 15 13 10 8 9 9 10 7 2 4 4 7 8 7 8 6 6 6 3 2 6 4 3 1 1 2 1 1 1 2 3 3 5 3 5 3 6 7 8
10 12 14 16 18 18 16 15 7 5 7 8 9 2 7 2 3 6 8 4 5 3 3 3 1 4 4 4 1 1 2 1 4 3 4 3 5 8 5 2 5 6 7 7 6
9 11 13 15 17 19 17 14 4 3 6 6 6 3 2 2 1 4 7 3 5 3 2 2 3 6 4 4 5 5 5 4 2 4 2 5 10 4 5 3 9 10 7 6 7
9 10 12 14 16 19 17 9 3 4 4 4 2 2 1 4 4 5 3 3 5 2 4 2 5 4 4 4 5 8 2 2 8 5 2 1 10 7 3 6 10 9 7 7 6
8 9 11 12 15 18 18 4 4 4 5 1 2 3 5 4 4 5 4 3 4 3 3 7 6 4 5 6 3 3 3 2 5 2 3 6 20 20 11 6 10 12 7 7 7
9 8 9 11 14 17 9 4 7 4 10 3 4 2 3 8 2 4 4 4 4 8 4 4 6 1 2 3 4 5 1 3 5 3 6 7 15 23 17 9 9 10 8 7 7
9 8 9 10 12 13 5 7 2 2 6 2 1 1 0 1 4 6 6 4 6 2 4 7 2 2 5 5 4 4 3 5 6 2 4 7 22 21 12 6 6 5 5 6 4
8 8 8 11 4 7 5 3 1 1 0 4 1 1 2 3 2 6 5 2 5 4 3 5 1 3 2 2 3 1 4 3 4 8 2 8 10 6 4 3 3 2 3 4 5
8 7 10 14 4 0 4 3 2 0 6 4 2 2 2 1 3 2 3 3 4 3 2 2 3 2 3 0 4 1 3 0 2 5 3 6 9 8 5 8 5 5 6 7 7
6 5 8 11 2 4 3 4 1 2 5 2 2 1 3 3 2 3 2 1 2 1 5 5 2 1 1 1 3 1 3 2 3 4 4 5 3 11 4 7 8 7 8 9 8
5 5 4 4 4 0 3 3 2 8 7 3 3 3 4 5 4 5 2 4 3 3 2 4 2 1 1 3 2 4 4 5 4 4 4 4 4 9 4 5 4 3 5 8 8
8 11 6 2 1 3 2 3 7 5 3 6 3 4 1 4 3 6 4 2 1 5 5 4 1 3 0 2 3 5 7 5 8 6 6 2 1 15 8 5 5 9 10 8 8
5 6 6 3 4 3 2 8 4 3 5 2 2 2 2 5 2 5 3 3 2 4 4 4 7 1 4 2 4 3 6 7 5 3 7 3 8 10 6 6 7 8 9 9 10
5 2 2 4 4 1 5 4 9 7 1 1 2 5 5 1 2 4 2 3 2 5 6 4 5 2 4 2 3 2 2 3 8 2 4 3 10 13 4 7 5 7 6 11 11
2 2 2 6 5 3 5 5 3 3 0 0 4 3 3 3 2 5 2 3 3 2 3 3 4 2 3 2 5 5 3 5 4 2 7 7 8 10 7 7 7 6 7 9 9
1 2 2 6 1 4 3 7 4 4 2 4 3 2 5 3 4 2 4 2 2 3 4 5 4 6 2 5 8 2 2 5 4 4 6 4 10 10 12 8 8 9 9 9 11
1 1 4 4 3 0 1 2 2 4 2 3 2 5 7 5 4 2 5 6 5 6 4 3 4 3 9 1 3 4 6 5 6 6 3 3 16 3 8 6 5 11 10 11 9
1 2 3 3 3 3 1 3 2 2 3 3 3 5 2 5 1 5 3 0 6 5 5 5 1 4 7 4 4 3 5 4 3 3 8 5 14 3 4 5 8 11 11 11 8
1 2 2 2 0 4 3 5 7 3 4 3 2 3 3 2 2 2 3 2 5 3 4 5 3 7 7 7 4 3 4 7 6 4 6 17 33 20 27 19 17 10 10 10 10
1 4 4 3 4 5 4 2 3 5 2 2 4 6 7 5 1 5 5 2 3 4 3 3 5 3 5 7 5 10 9 16 14 11 11 32 15 30 21 20 18 7 10 11 11
2 1 1 2 2 4 8 8 15 12 7 5 5 3 7 7 9 7 5 4 6 2 6 4 4 2 6 7 4 9 17 18 17 17 19 26 30 32 28 16 12 13 9 11 10
3 2 1 3 4 6 7 11 8 6 9 9 12 5 7 16 9 3 4 2 5 8 8 6 5 3 7 4 8 10 12 8 4 5 7 9 21 14 13 9 7 11 7 12 10
Wind_Direction
16 14 12 10 5 0 356 355 354 353 352 353 354 358 1 356 4 43 39 329 329 330 336 305 9 5 36 59 34 111 65 162 188 150 196 15 67 70 282 269 337 342 148 155 147
16 9 6 10 5 0 356 353 352 354 353 352 351 355 352 353 61 57 341 344 336 343 359 19 16 14 54 35 18 74 108 192 163 161 174 359 109 323 12 351 288 204 89 121 144
10 8 4 3 3 360 357 354 350 351 349 348 346 344 338 332 57 337 342 343 340 349 221 188 249 60 65 35 7 45 140 154 200 161 138 216 255 186 186 260 229 210 185 189 184
1 1 0 357 359 359 356 353 345 344 344 343 341 340 339 8 113 297 342 339 347 351 131 37 34 53 70 85 357 95 55 75 181 139 141 221 226 254 194 233 164 232 276 238 214
358 353 352 353 352 354 353 350 346 335 338 338 339 341 355 47 22 328 340 341 2 20 46 63 63 111 109 105 81 85 158 305 246 246 230 219 248 241 246 250 275 271 247 249 225
349 347 346 346 349 349 346 343 337 327 335 338 345 341 23 71 317 347 345 354 15 19 13 36 114 149 98 74 74 139 182 270 279 345 56 265 267 31 272 194 211 237 269 264 225
339 338 339 341 344 345 343 338 319 313 329 340 348 45 54 154 341 336 3 1 352 15 34 26 48 58 126 105 130 86 126 18 28 4 15 330 289 231 245 33 298 291 289 252 233
332 333 335 338 339 340 342 338 328 300 322 330 348 56 95 301 293 17 347 354 355 8 51 354 24 96 58 117 34 44 51 30 352 358 9 68 273 241 195 221 282 289 281 262 230
330 333 333 337 337 336 340 335 358 325 321 347 39 47 86 315 27 323 16 347 308 351 24 59 63 77 35 72 24 13 185 330 323 39 326 115 276 233 171 296 278 279 264 263 217
327 336 332 335 338 336 335 317 2 37 2 58 72 36 19 325 311 335 322 16 27 325 20 39 45 69 35 63 226 255 22 279 258 327 351 267 265 276 279 242 254 272 262 240 209
318 328 328 332 344 344 354 13 15 358 38 95 271 288 337 304 274 358 357 350 359 50 42 9 64 96 132 85 105 107 113 267 261 316 319 262 275 278 291 275 262 255 254 223 199
305 322 332 333 350 3 37 69 100 220 320 349 294 287 282 345 341 354 8 58 57 64 342 17 113 174 120 92 90 78 82 285 294 288 320 306 287 287 283 247 225 248 242 215 169
307 336 340 336 350 47 64 71 16 199 92 314 9 4 305 17 45 325 26 71 79 51 19 143 119 131 101 84 78 185 166 242 261 327 284 319 292 318 280 278 270 224 201 187 213
346 14 359 328 50 309 52 338 355 264 62 296 337 7 345 15 36 347 16 100 46 173 181 173 324 111 58 243 121 295 180 297 349 47 275 41 282 301 313 304 279 263 225 227 235
37 45 45 41 139 48 331 329 56 52 2 290 338 302 323 62 338 17 342 11 116 152 86 261 143 135 105 243 137 182 36 47 89 100 26 341 59 271 325 298 281 273 242 237 237
48 26 353 33 60 310 324 337 25 41 263 333 305 346 24 11 9 320 25 59 138 114 74 216 304 293 221 62 55 106 68 46 64 94 17 246 126 277 254 217 291 272 281 256 249
85 56 55 19 117 309 6 38 31 133 346 302 340 31 98 330 359 24 7 350 180 39 351 336 337 338 354 85 35 66 50 334 350 6 229 312 321 245 266 249 235 282 291 277 260
86 65 37 55 323 333 66 51 100 240 233 324 348 3 45 6 28 333 340 324 81 83 97 120 327 59 346 101 172 64 135 153 243 274 274 357 241 255 233 279 271 270 271 288 278
128 44 42 345 342 8 64 80 207 204 219 231 4 59 319 357 161 19 251 221 211 163 161 120 288 349 29 67 85 241 66 165 99 91 27 252 289 291 274 294 269 274 281 276 277
91 101 325 320 337 68 76 249 235 226 237 154 177 141 212 270 358 59 323 211 167 141 131 196 352 266 250 100 30 136 145 46 5 341 302 287 276 241 292 280 300 306 284 289 292
22 21 306 335 347 53 201 233 289 258 240 187 237 212 216 217 172 239 251 267 131 120 89 125 101 287 59 197 177 123 2 44 118 139 188 304 258 216 231 219 262 284 279 280 289
64 332 318 351 69 342 239 227 304 263 212 247 254 215 197 173 168 228 239 223 172 151 152 186 138 239 224 107 133 164 182 160 131 256 212 192 268 226 236 238 222 273 276 279 267
88 285 339 44 224 218 211 274 242 274 241 188 225 222 93 196 324 199 219 221 161 156 164 180 308 354 337 20 1 218 200 171 115 88 195 177 270 287 277 277 236 257 282 283 282
69 310 341 51 248 163 218 248 238 188 265 237 285 106 134 267 251 238 246 199 179 197 181 158 181 188 213 210 145 207 203 208 165 158 256 230 270 269 283 296 298 289 256 275 290
186 244 195 219 231 206 178 280 238 248 191 250 318 213 174 225 260 230 224 212 174 218 151 162 222 247 256 245 204 237 226 236 214 217 218 273 255 276 284 289 295 276 296 309 303
261 209 323 257 221 189 207 212 242 250 168 216 215 224 198 205 203 204 164 196 204 149 158 184 255 120 284 274 286 270 244 240 236 244 254 262 276 266 276 295 288 280 282 285 283
274 288 280 216 215 214 214 222 241 199 229 205 202 165 204 233 234 232 185 181 182 169 184 167 151 107 265 339 327 296 245 187 186 215 177 206 240 281 276 270 259 282 244 266 268